Temp
40 42 41 41 39 39 32 35 29 39 40 44 40 37 39 41 42 41 40 38 34 31 31 32 32 33 35 36 38 39 41 43 40 45 45 50 48 51 53 55 64 68 67 66
35 41 41 38 39 38 37 38 41 42 41 43 43 41 39 38 39 38 39 37 35 33 32 32 32 35 35 35 37 39 36 36 40 40 41 42 44 46 48 50 54 59 61 61
33 39 37 30 35 36 33 39 36 30 33 36 37 37 36 35 38 36 38 37 35 34 33 33 34 35 35 38 39 38 34 36 38 37 37 39 41 43 43 46 49 50 50 56
34 35 23 36 46 46 40 37 39 36 34 34 36 39 37 40 37 38 39 38 37 38 37 37 38 38 37 40 40 39 39 39 37 37 37 39 39 39 41 43 44 43 44 46
30 32 35 34 39 40 38 36 40 34 35 36 38 42 37 40 40 40 40 41 40 40 39 39 38 39 39 36 38 38 37 37 38 38 37 37 36 38 40 40 40 39 39 39
33 27 24 38 42 44 44 32 41 37 36 34 37 33 38 38 41 40 42 41 40 41 40 38 38 39 38 36 35 35 36 37 38 39 38 36 37 38 39 40 38 37 36 35
32 30 34 42 43 44 30 32 41 36 36 35 31 34 37 39 40 41 41 40 41 41 39 38 39 38 38 37 35 36 38 38 39 38 37 37 37 37 39 39 39 37 35 36
33 29 26 44 41 35 40 43 42 40 39 37 37 37 38 39 39 39 39 39 40 39 38 39 38 38 37 36 37 39 39 38 38 37 36 37 36 37 37 37 36 36 35 35
37 38 44 46 44 45 44 42 42 41 41 38 35 35 38 38 39 38 37 38 39 38 37 37 37 37 36 36 38 39 39 38 38 37 36 35 33 33 34 35 34 32 33 32
38 39 43 44 45 45 45 44 44 44 42 39 35 35 37 38 38 37 36 35 36 37 35 34 36 36 36 37 38 39 38 37 39 37 36 34 34 32 30 30 32 31 31 30
38 43 42 43 44 44 43 43 43 40 41 39 37 34 35 36 35 35 35 34 34 32 33 33 35 35 35 36 39 37 36 36 37 37 36 35 32 30 30 29 29 30 30 30
35 42 42 42 44 44 41 40 40 39 38 39 36 34 36 34 34 33 33 34 32 31 31 31 33 34 35 35 36 36 35 35 34 36 36 35 34 32 30 29 28 29 30 30
37 43 42 42 43 43 39 35 35 32 34 35 34 34 33 33 30 28 29 28 28 27 28 29 29 30 31 33 34 32 32 33 34 34 32 32 32 30 29 30 29 28 28 29
41 38 34 37 32 38 37 35 35 36 36 35 34 33 32 31 29 27 25 25 25 25 24 25 26 27 29 30 30 30 31 30 32 31 31 31 31 30 30 30 29 29 29 27
42 42 37 34 36 35 37 37 35 34 34 34 34 32 32 30 29 28 27 25 25 25 23 23 24 26 28 29 30 29 30 30 31 31 31 31 31 31 31 31 30 30 31 31
39 38 38 38 37 36 35 34 33 32 32 32 30 29 29 30 29 29 28 26 23 22 21 23 24 26 28 29 30 30 31 28 30 33 32 32 32 31 31 31 30 29 27 26
36 33 36 34 34 33 32 32 31 30 30 29 27 28 29 27 26 23 22 22 22 23 24 24 24 27 28 30 30 30 31 32 29 32 32 31 31 30 30 29 28 28 26 24
39 37 37 36 34 32 30 28 28 28 26 25 23 22 21 21 20 20 20 22 23 24 24 25 26 28 29 30 31 31 30 29 29 29 29 28 29 30 29 28 28 28 28 26
36 34 33 32 32 30 28 25 23 22 21 22 21 20 20 19 20 21 22 21 21 22 22 26 26 28 29 29 30 32 30 29 29 28 28 27 27 28 27 27 26 26 27 26
31 31 29 27 26 25 21 22 23 21 22 21 20 20 19 18 18 20 22 21 21 21 24 25 27 27 28 29 29 31 30 29 29 27 26 26 25 25 25 23 25 25 25 25
26 26 23 21 19 19 19 20 21 20 19 19 19 17 17 18 18 19 22 23 22 21 25 25 26 25 29 28 30 29 29 28 28 27 26 25 25 24 23 23 23 23 23 23
21 19 18 19 19 18 19 21 20 18 18 17 16 17 19 21 21 19 18 19 24 19 25 25 24 20 25 26 28 27 27 27 26 26 25 25 24 23 23 22 22 22 21 21
20 20 19 18 20 20 19 19 18 19 18 18 17 19 21 22 23 21 20 22 24 21 24 23 18 18 23 25 25 25 25 25 25 25 24 24 23 23 22 22 21 21 21 21
21 21 21 21 19 21 20 20 22 19 18 19 17 16 22 23 22 23 24 21 18 19 20 18 17 18 22 23 23 23 23 23 23 23 24 22 23 22 21 21 20 21 20 19
22 22 21 20 22 25 23 22 21 21 21 22 21 22 22 24 21 21 21 21 19 21 21 17 17 19 21 21 21 21 21 21 21 22 22 21 21 21 20 20 19 19 19 19
23 26 26 25 27 27 27 26 26 25 25 23 24 24 24 24 24 23 22 19 20 19 20 20 19 20 20 20 20 19 20 20 20 20 20 20 20 19 19 18 19 19 19 18
25 24 25 25 26 27 27 26 25 23 24 25 23 24 24 24 22 22 19 21 21 20 20 19 19 18 19 19 19 19 19 19 17 19 19 19 19 18 18 17 17 18 17 17
MSLP
1016.79 1016.84 1017.01 1017.19 1017.46 1017.96 1018.54 1018.31 1017.88 1016.32 1016.15 1016.62 1018.35 1019.09 1019.13 1019.22 1018.92 1018.48 1018.23 1018.31 1018.66 1018.51 1017.72 1016.39 1015.63 1014.84 1013.77 1012.03 1010.59 1009.53 1008.36 1007.49 1007.07 1005.96 1005.44 1004.97 1004.31 1003.47 1002.85 1002.61 1001.91 1001.98 1002.22 1002.51
1016.90 1016.88 1017.15 1017.17 1017.42 1017.93 1018.34 1018.31 1017.90 1017.61 1017.20 1018.61 1019.35 1019.75 1019.63 1019.83 1019.29 1019.04 1018.63 1018.74 1018.74 1018.60 1018.13 1017.10 1016.03 1014.93 1013.35 1012.75 1011.86 1011.19 1009.82 1009.09 1008.47 1007.07 1005.89 1006.54 1005.14 1004.34 1003.46 1003.88 1003.09 1002.31 1002.30 1002.71
1016.33 1016.82 1017.33 1017.19 1016.61 1017.54 1018.07 1018.31 1018.76 1018.93 1019.63 1020.16 1020.20 1020.20 1020.18 1020.42 1020.04 1019.65 1019.12 1018.80 1018.64 1018.45 1017.91 1016.99 1015.81 1015.16 1014.48 1013.34 1011.93 1010.54 1011.18 1011.09 1009.31 1006.60 1007.41 1006.95 1006.64 1005.79 1004.65 1004.50 1004.38 1004.41 1003.62 1003.54
1016.47 1017.23 1016.99 1016.26 1016.21 1016.83 1017.53 1018.39 1018.97 1019.73 1020.60 1021.02 1020.93 1020.87 1020.81 1020.81 1020.71 1020.10 1019.57 1019.10 1018.72 1018.54 1018.34 1017.78 1017.06 1016.03 1015.48 1014.61 1013.55 1013.59 1012.48 1011.35 1010.17 1010.41 1009.65 1008.56 1008.18 1007.57 1006.75 1005.99 1005.50 1005.11 1005.16 1005.05
1016.50 1016.14 1016.24 1016.86 1017.06 1017.22 1017.25 1017.82 1019.22 1020.29 1020.91 1021.09 1020.98 1020.29 1020.80 1021.06 1021.16 1020.74 1020.29 1019.87 1019.59 1019.33 1018.79 1018.16 1017.30 1016.27 1015.53 1015.11 1014.25 1013.00 1012.43 1011.74 1011.23 1010.71 1010.47 1009.84 1009.41 1008.55 1007.92 1007.40 1006.86 1006.94 1006.78 1006.76
1016.56 1016.20 1015.66 1015.89 1017.01 1017.68 1017.68 1017.93 1019.30 1020.32 1020.82 1021.10 1021.05 1020.37 1020.66 1021.60 1021.37 1021.05 1020.79 1020.44 1020.02 1019.53 1019.14 1018.76 1018.17 1017.17 1016.29 1015.93 1015.49 1015.02 1014.28 1013.35 1012.58 1011.99 1011.40 1010.83 1010.46 1009.94 1009.07 1008.63 1008.36 1008.27 1007.94 1008.19
1016.20 1016.12 1016.05 1016.61 1017.35 1017.83 1017.79 1018.70 1019.47 1020.48 1020.82 1021.06 1021.38 1021.66 1021.83 1021.89 1021.59 1021.49 1021.17 1020.83 1020.51 1019.96 1019.45 1019.24 1018.78 1018.18 1017.25 1016.47 1016.01 1015.80 1015.22 1014.49 1013.68 1013.11 1012.60 1012.18 1011.66 1011.06 1010.36 1009.70 1009.09 1008.95 1008.84 1008.97
1016.23 1016.39 1016.23 1017.11 1017.71 1017.73 1018.08 1018.72 1019.55 1020.23 1020.78 1021.16 1021.50 1021.80 1021.93 1021.86 1021.79 1021.70 1021.51 1021.28 1021.00 1020.44 1020.12 1019.90 1019.42 1018.80 1017.99 1017.74 1017.15 1016.37 1015.83 1015.28 1014.73 1014.32 1013.81 1013.09 1012.58 1012.04 1011.48 1010.73 1010.30 1010.39 1010.27 1009.93
1015.74 1015.91 1016.54 1017.15 1017.42 1018.15 1018.50 1019.06 1019.77 1020.34 1020.80 1021.42 1021.71 1022.09 1022.07 1022.02 1022.12 1022.25 1022.09 1021.94 1021.52 1020.98 1020.64 1020.49 1020.10 1019.58 1018.93 1018.55 1017.84 1017.11 1016.23 1015.80 1015.45 1014.91 1014.51 1014.28 1013.95 1013.21 1012.29 1011.71 1011.73 1011.63 1011.09 1011.05
1016.15 1016.81 1016.84 1017.49 1018.12 1018.58 1019.15 1019.60 1020.20 1020.71 1021.12 1021.52 1021.94 1022.33 1022.37 1022.33 1022.38 1022.59 1022.64 1022.62 1022.41 1021.86 1021.36 1020.97 1020.62 1020.13 1019.53 1018.75 1017.96 1017.13 1016.60 1016.19 1015.84 1015.33 1014.95 1014.89 1014.49 1014.34 1014.04 1013.34 1012.99 1012.63 1012.39 1012.43
1016.30 1016.77 1017.46 1017.87 1018.37 1018.99 1019.68 1020.28 1020.78 1021.52 1021.56 1021.82 1022.26 1022.64 1022.77 1022.78 1023.05 1023.24 1023.20 1023.26 1023.23 1022.78 1022.16 1021.60 1021.15 1020.72 1020.25 1019.61 1018.46 1017.65 1016.96 1016.58 1016.01 1015.73 1015.54 1015.25 1015.53 1015.50 1015.14 1015.49 1015.11 1014.25 1014.10 1014.00
1016.70 1017.10 1017.50 1017.91 1018.72 1019.63 1020.19 1020.89 1021.57 1021.90 1022.11 1022.39 1022.86 1023.10 1023.19 1023.40 1023.83 1023.94 1023.92 1023.80 1023.69 1023.53 1023.13 1022.64 1022.02 1021.44 1020.82 1020.25 1019.29 1018.48 1017.59 1017.29 1017.13 1016.55 1016.14 1015.96 1015.76 1015.81 1016.41 1016.43 1016.06 1015.87 1015.57 1015.10
1017.92 1018.16 1018.62 1019.20 1019.86 1020.37 1021.18 1022.10 1022.62 1023.11 1023.16 1023.15 1023.60 1023.74 1023.91 1024.01 1024.56 1024.89 1024.92 1024.94 1024.74 1024.42 1023.98 1023.50 1022.97 1022.34 1021.82 1021.15 1020.34 1019.69 1018.96 1018.46 1017.74 1017.23 1017.02 1016.81 1016.47 1016.42 1016.35 1016.55 1016.70 1016.74 1016.56 1016.19
1018.68 1019.15 1019.86 1020.39 1021.23 1021.56 1022.18 1022.76 1023.16 1023.32 1023.58 1023.93 1024.13 1024.30 1024.42 1024.61 1024.89 1025.23 1025.41 1025.63 1025.51 1025.15 1024.73 1024.29 1023.67 1023.02 1022.55 1021.79 1021.04 1020.51 1019.73 1019.55 1019.01 1018.74 1018.36 1018.09 1017.66 1017.35 1017.25 1017.06 1016.84 1016.82 1017.02 1017.06
1018.95 1019.55 1020.39 1021.48 1022.00 1022.44 1022.75 1023.02 1023.28 1023.59 1023.97 1024.30 1024.71 1024.90 1024.97 1025.00 1025.27 1025.61 1025.79 1025.91 1025.77 1025.50 1025.34 1024.80 1024.15 1023.62 1023.17 1022.42 1021.68 1021.33 1020.77 1020.60 1020.03 1019.62 1019.26 1018.95 1018.42 1018.31 1018.11 1017.99 1017.77 1017.61 1017.56 1017.41
1019.95 1020.56 1021.05 1021.46 1022.17 1022.79 1023.24 1023.61 1023.90 1024.34 1024.66 1025.02 1025.42 1025.63 1025.69 1025.82 1026.03 1026.23 1026.34 1026.36 1026.13 1025.90 1025.68 1025.12 1024.60 1024.26 1023.62 1022.82 1022.12 1021.62 1021.33 1021.24 1020.69 1020.01 1019.74 1019.43 1019.28 1019.03 1018.83 1018.57 1018.59 1018.62 1018.61 1018.73
1020.11 1020.86 1021.39 1022.07 1022.82 1023.46 1024.01 1024.59 1024.98 1025.36 1025.64 1025.96 1026.39 1026.51 1026.34 1026.56 1026.83 1027.09 1027.14 1027.02 1026.82 1026.54 1026.06 1025.57 1025.03 1024.42 1023.71 1022.95 1022.37 1022.01 1021.65 1021.28 1021.22 1020.75 1020.59 1020.39 1020.07 1019.97 1019.69 1019.60 1019.52 1019.68 1019.98 1020.35
1021.05 1021.74 1022.32 1022.86 1023.55 1024.34 1025.17 1025.78 1026.14 1026.48 1026.88 1027.29 1027.60 1027.70 1027.71 1027.67 1027.77 1027.79 1027.68 1027.39 1026.99 1026.51 1026.33 1025.83 1025.30 1024.50 1023.79 1023.29 1022.75 1022.35 1022.14 1022.10 1021.87 1021.65 1021.54 1021.33 1020.97 1020.75 1020.60 1020.50 1020.42 1020.40 1020.54 1020.82
1022.45 1023.17 1023.89 1024.50 1025.00 1025.58 1026.26 1026.95 1027.48 1027.92 1028.12 1028.21 1028.26 1028.44 1028.62 1028.67 1028.54 1028.37 1028.07 1027.74 1027.27 1026.80 1026.71 1026.09 1025.49 1024.67 1024.13 1023.71 1023.12 1022.65 1022.48 1022.42 1022.37 1022.30 1022.22 1022.14 1022.00 1021.64 1021.46 1021.49 1021.36 1021.38 1021.37 1021.23
1023.91 1024.63 1025.32 1026.02 1026.63 1027.13 1027.70 1028.12 1028.31 1028.63 1028.70 1028.88 1029.05 1029.08 1029.14 1029.22 1029.13 1028.77 1028.33 1028.05 1028.06 1028.02 1027.26 1026.70 1025.98 1025.32 1024.71 1024.12 1023.65 1023.22 1023.03 1022.84 1022.70 1022.79 1022.77 1022.78 1022.63 1022.39 1022.32 1022.40 1022.07 1022.09 1022.09 1022.23
1025.24 1025.95 1026.68 1027.29 1027.91 1028.48 1028.73 1028.91 1028.97 1029.20 1029.56 1029.67 1029.62 1029.77 1029.74 1029.71 1029.62 1029.19 1028.48 1028.15 1028.38 1028.41 1027.64 1027.15 1026.70 1026.30 1025.47 1024.97 1024.27 1023.90 1023.65 1023.40 1023.29 1023.29 1023.24 1023.31 1023.26 1023.07 1023.01 1022.99 1023.04 1023.16 1023.11 1023.26
1026.44 1027.04 1027.57 1028.03 1028.48 1028.94 1029.28 1029.38 1029.59 1029.82 1029.98 1030.16 1030.28 1030.18 1029.84 1029.56 1029.45 1029.48 1029.78 1029.49 1028.89 1029.00 1028.16 1027.85 1027.65 1027.40 1026.54 1025.65 1025.16 1024.76 1024.45 1024.24 1024.06 1023.91 1024.00 1023.96 1023.79 1023.76 1023.87 1023.92 1024.00 1024.10 1024.23 1024.27
1027.07 1027.56 1028.04 1028.49 1028.76 1029.21 1029.65 1029.88 1030.06 1030.19 1030.32 1030.45 1030.52 1030.37 1030.09 1029.94 1029.79 1029.47 1029.42 1029.87 1029.57 1029.54 1028.90 1028.92 1028.99 1028.41 1027.28 1026.56 1026.08 1025.69 1025.42 1025.24 1025.15 1025.11 1025.03 1025.01 1024.91 1024.80 1024.76 1024.88 1024.93 1024.97 1025.03 1025.15
1027.36 1027.84 1028.29 1028.78 1029.17 1029.28 1029.41 1029.85 1030.02 1030.37 1030.55 1030.63 1030.97 1030.98 1030.33 1029.89 1030.04 1030.26 1030.19 1030.35 1030.40 1030.01 1029.88 1030.04 1029.63 1028.91 1027.91 1027.42 1027.06 1026.76 1026.47 1026.24 1026.06 1025.88 1025.78 1025.72 1025.57 1025.59 1025.64 1025.75 1025.71 1025.83 1025.87 1025.94
1027.54 1028.01 1028.45 1028.69 1028.67 1028.69 1029.08 1029.59 1029.95 1030.22 1030.29 1030.31 1030.53 1030.64 1030.67 1030.67 1030.53 1030.68 1030.68 1030.57 1030.61 1030.16 1029.94 1030.21 1029.93 1029.19 1028.61 1028.28 1028.04 1027.72 1027.45 1027.32 1027.15 1026.71 1026.55 1026.40 1026.32 1026.30 1026.30 1026.39 1026.41 1026.41 1026.46 1026.46
1027.33 1027.42 1027.71 1028.02 1028.00 1028.38 1028.73 1029.09 1029.10 1029.57 1029.68 1029.91 1030.23 1030.46 1030.62 1030.72 1030.73 1030.66 1030.77 1030.96 1030.77 1030.58 1030.36 1030.17 1030.18 1029.64 1029.29 1029.11 1028.82 1028.59 1028.31 1028.17 1027.85 1027.64 1027.41 1027.28 1027.22 1027.19 1027.21 1027.15 1027.10 1027.05 1027.04 1027.13
1027.25 1027.61 1027.94 1028.17 1028.41 1028.62 1028.77 1028.94 1029.13 1029.44 1029.79 1029.92 1030.14 1030.54 1030.64 1030.74 1030.89 1030.81 1030.98 1030.82 1030.79 1030.72 1030.59 1030.47 1030.38 1030.38 1030.07 1029.74 1029.51 1029.27 1029.01 1028.83 1029.09 1028.55 1028.27 1028.09 1027.98 1027.93 1027.95 1027.87 1027.85 1027.78 1027.75 1027.76
Wind_Speed
5 4 6 8 10 11 11 13 7 12 16 12 14 16 17 17 19 22 21 21 18 17 18 18 19 17 15 16 18 17 19 19 15 15 16 13 11 11 11 10 3 9 11 9
5 9 10 12 11 11 14 13 16 16 14 11 13 14 16 15 20 21 21 21 19 17 17 17 17 19 20 17 17 14 15 18 18 14 19 15 14 12 11 11 9 4 2 5
3 6 5 9 17 14 5 7 7 6 6 13 16 16 12 13 19 19 20 21 19 17 17 18 19 19 18 18 18 20 14 12 16 19 17 17 15 14 14 12 10 9 10 6
5 6 8 4 3 9 8 7 6 7 7 8 12 15 4 12 15 18 19 20 19 18 17 17 16 18 16 17 16 14 15 16 15 11 11 14 13 12 12 10 10 11 11 11
4 10 3 4 8 7 5 0 5 5 6 8 11 15 7 15 14 15 17 16 15 15 16 17 19 18 17 16 18 19 19 19 18 16 14 13 13 13 11 10 10 10 10 13
6 5 6 6 8 2 4 5 6 2 5 6 9 7 8 14 13 14 14 14 15 16 15 16 17 18 16 16 15 16 16 17 16 15 14 15 13 13 10 8 8 7 11 10
7 6 2 5 5 6 6 6 3 3 3 4 4 4 9 11 12 12 13 15 15 14 14 15 16 16 15 15 16 14 13 13 14 15 14 13 11 11 11 10 10 10 10 11
8 8 8 9 8 5 6 5 3 2 3 4 4 7 8 9 11 12 14 14 14 13 13 15 16 15 14 14 14 13 12 12 13 14 12 11 14 12 12 12 12 11 11 10
6 1 8 6 2 5 4 3 2 2 3 4 4 5 7 8 9 10 11 12 12 12 13 13 14 14 15 15 13 12 11 12 11 12 13 13 12 13 11 13 10 9 9 9
6 5 5 5 5 4 3 2 2 2 4 4 5 5 7 8 8 9 10 11 11 12 12 13 13 14 15 15 14 12 11 11 10 10 11 13 10 10 10 11 9 9 10 9
2 6 5 4 5 6 4 2 3 1 4 5 5 5 6 7 8 8 9 9 9 11 12 13 13 13 14 15 14 12 11 11 11 9 10 9 10 11 10 12 14 10 9 9
2 6 3 5 7 5 4 3 3 2 3 6 6 5 6 5 6 7 8 10 10 10 11 12 13 13 14 14 15 14 10 9 9 8 8 8 8 6 16 16 21 22 21 13
4 6 8 9 8 5 5 4 4 5 5 5 5 5 5 5 5 6 8 9 10 11 10 11 12 12 13 13 13 13 11 11 8 9 9 9 9 8 8 7 15 20 20 21
9 9 7 4 4 4 6 5 4 3 4 5 5 4 4 3 3 5 7 8 8 9 10 10 11 11 12 12 11 11 10 11 8 8 7 7 8 8 7 7 8 9 14 15
8 6 8 11 9 7 5 3 1 3 5 5 5 5 5 5 5 7 7 7 8 7 9 10 10 11 12 11 9 8 8 7 6 6 6 7 7 7 7 7 8 7 7 9
10 10 10 9 7 5 3 2 1 4 4 5 5 5 5 5 6 7 8 10 10 10 10 10 10 11 11 10 8 6 5 8 6 6 6 7 6 7 7 8 8 8 9 10
11 8 7 6 5 3 4 5 5 4 4 5 6 7 6 5 6 7 9 9 8 7 9 9 11 11 10 9 8 5 5 5 7 6 6 6 6 6 7 7 7 8 8 9
10 9 6 5 6 6 6 5 5 5 6 5 5 5 6 7 7 7 8 8 8 7 11 11 12 12 10 10 8 6 5 5 5 5 6 7 6 6 6 7 7 7 7 8
10 10 9 8 7 7 7 6 6 5 4 4 6 7 6 6 6 6 7 9 10 10 12 13 15 12 11 11 9 5 5 5 5 5 5 5 5 6 6 6 6 7 6 7
11 10 11 10 9 8 7 5 5 6 5 6 6 6 6 6 6 6 5 8 9 9 11 12 12 11 11 11 10 6 5 5 5 5 6 5 5 6 5 7 7 6 7 7
10 10 10 10 9 8 7 5 6 7 6 5 6 5 5 6 6 8 7 6 10 12 10 11 10 10 8 10 7 6 6 6 6 5 6 5 5 6 6 6 6 6 6 5
9 9 9 9 9 8 6 7 7 7 7 6 4 3 3 5 3 5 7 8 7 12 8 8 9 13 10 10 7 7 6 6 5 5 5 5 5 6 6 6 6 5 5 5
8 9 8 7 8 8 6 6 6 6 6 5 5 5 5 5 5 6 5 9 7 9 7 8 12 13 11 7 7 7 7 7 6 5 5 5 5 5 5 5 5 5 4 4
9 8 8 6 6 6 6 6 5 5 5 5 4 3 5 3 4 4 4 5 7 7 7 9 10 11 9 6 7 7 7 7 6 5 4 5 5 4 5 4 4 4 4 4
9 8 7 6 6 4 5 6 5 5 4 5 4 4 4 4 4 4 4 4 6 8 6 9 10 10 7 7 7 7 6 6 7 6 6 5 5 5 5 4 5 4 3 4
10 7 6 4 4 5 5 5 4 4 3 4 4 3 3 3 3 2 3 3 5 6 6 6 7 7 7 7 6 7 6 7 6 6 6 5 5 5 5 5 4 4 4 4
8 8 7 6 5 4 4 4 5 5 3 3 4 2 3 2 3 3 3 4 4 4 4 5 6 7 7 7 7 6 6 5 7 6 6 5 5 5 5 4 4 4 3 3
Wind_Direction
235 197 204 214 203 214 212 236 255 296 307 350 344 340 344 340 342 346 349 352 355 351 343 340 343 342 346 353 359 360 12 16 4 20 20 9 9 17 14 5 247 189 181 180
232 219 227 243 241 228 226 251 266 272 283 22 340 339 347 347 347 345 347 350 352 349 342 342 344 344 356 355 0 360 14 7 356 7 19 358 9 15 25 8 8 350 133 160
193 176 190 249 233 208 175 221 255 280 2 342 328 336 355 359 350 344 345 349 351 352 349 345 348 349 353 351 358 13 6 354 360 18 7 358 3 3 10 14 17 33 38 39
156 171 225 76 93 183 209 235 252 267 299 325 319 320 28 11 351 342 348 350 350 349 351 349 346 349 358 358 7 5 3 1 16 18 11 8 2 2 10 16 19 32 34 38
209 210 80 186 199 200 221 172 187 254 286 319 326 303 134 15 358 346 348 351 350 349 349 352 351 348 357 6 3 5 2 5 9 10 10 6 5 4 6 19 31 33 40 40
180 236 228 90 135 142 167 205 168 270 316 327 333 338 355 347 354 351 353 353 352 351 355 357 354 349 358 3 8 7 0 1 5 8 11 12 9 5 5 26 47 37 46 41
208 240 164 146 140 163 233 78 137 107 337 350 352 331 331 336 349 358 354 355 354 355 360 1 356 352 1 2 3 1 360 6 12 15 14 14 13 16 15 26 41 37 44 44
218 230 233 146 142 250 66 115 108 68 5 345 345 335 334 344 351 358 355 357 359 356 2 4 1 355 0 8 352 360 4 12 21 21 20 20 20 23 26 32 40 39 39 40
211 103 116 158 50 115 100 110 113 17 14 1 355 336 339 351 356 360 5 356 357 357 0 6 6 1 2 1 356 3 10 12 21 27 32 31 25 23 26 31 30 28 33 31
183 155 173 150 138 138 139 129 114 16 13 8 339 339 339 355 3 0 8 3 355 354 2 4 2 359 358 355 355 1 5 19 20 30 36 35 36 32 29 26 27 31 31 27
156 161 146 172 179 159 141 133 108 45 24 15 353 344 347 359 8 3 4 6 4 359 356 1 359 0 1 353 355 1 12 13 15 26 30 42 55 37 39 40 31 31 24 35
200 89 264 86 147 146 154 121 83 40 28 19 9 356 341 8 13 8 7 4 3 6 359 355 357 359 0 0 357 1 11 13 19 18 21 31 32 65 64 50 42 37 37 32
122 100 102 111 126 136 140 131 92 74 29 14 33 352 353 358 26 16 10 6 359 356 357 353 353 357 357 357 1 6 12 4 14 19 22 23 28 31 27 77 72 51 35 39
126 112 105 115 134 119 130 126 119 62 49 29 21 356 14 8 37 13 11 2 348 353 353 350 349 353 352 352 1 3 11 15 15 20 23 24 32 35 35 34 32 35 51 40
113 75 107 128 128 120 129 140 83 12 9 29 26 5 6 8 25 11 19 6 343 354 353 352 353 353 344 343 354 7 9 9 8 20 31 24 30 34 35 36 39 40 37 41
121 119 135 127 122 117 108 83 52 33 19 28 30 19 13 34 37 25 14 7 359 358 350 350 353 345 340 336 346 2 15 18 10 22 26 31 32 32 33 37 36 37 37 21
129 131 142 133 129 109 85 72 62 48 34 47 33 11 17 58 49 22 9 3 357 349 357 356 350 343 344 351 355 7 2 21 13 28 29 31 34 37 41 43 45 43 47 27
87 90 86 112 131 129 101 78 70 59 52 42 43 60 60 45 24 13 9 3 360 9 12 359 354 347 356 1 357 12 23 21 26 33 32 32 33 41 42 47 46 46 42 49
96 99 94 90 89 98 97 84 70 61 67 72 89 72 60 42 24 19 12 14 13 5 359 355 349 356 358 4 349 12 23 34 42 43 42 39 46 45 47 50 52 47 44 45
103 99 96 90 83 95 102 98 101 78 87 90 91 74 61 38 19 13 1 43 15 0 344 357 353 358 358 355 349 13 19 32 47 49 39 40 42 48 64 54 45 49 47 48
108 106 106 106 98 89 90 98 96 94 83 72 84 74 60 51 41 11 18 27 16 359 356 3 6 1 2 348 359 19 25 32 36 40 39 41 45 46 45 44 42 41 48 50
121 119 119 120 114 106 98 95 102 107 104 90 78 69 96 66 93 109 70 8 13 1 1 10 5 1 352 357 15 19 25 33 36 36 38 35 37 43 42 41 40 41 38 36
128 130 127 130 128 119 116 101 96 102 99 88 75 63 50 41 23 21 21 25 13 11 10 17 358 358 356 16 19 23 29 32 35 38 39 41 41 41 43 41 43 40 39 35
136 136 129 123 130 144 142 131 130 103 99 105 85 28 1 43 84 33 39 36 20 353 34 13 6 5 11 18 21 24 23 24 27 32 48 40 44 47 44 44 45 53 60 51
143 140 138 151 161 148 145 138 142 142 148 103 96 98 53 49 19 38 10 20 26 360 20 30 13 11 20 21 22 21 28 32 15 25 29 33 34 36 37 40 29 33 46 45
157 159 143 154 129 145 140 171 147 148 148 122 100 69 71 54 64 22 53 23 30 18 23 24 22 12 20 23 21 20 22 18 21 27 24 32 39 38 36 31 33 33 34 46
133 140 138 138 143 146 138 141 155 152 149 116 101 89 64 52 67 20 17 24 25 22 26 21 23 19 14 12 19 17 14 29 34 13 25 28 27 31 25 22 26 32 39 43